Wetbulb
60.78 60.88 60.56 60.58 60.83 60.56 60.58 59.96 59.62 59.73 59.85 59.80 59.57 59.66 60.18 60.25 60.52 60.57 60.69 60.75 60.36 60.12 59.95 61.04 61.38 62.04 62.99 61.45 59.79 73.24 73.83 75.54 71.27 71.76 72.02 69.52 65.54 63.26 61.45 62.94 64.06 63.95 64.46 65.61 66.55 67.69 67.07
60.54 60.41 60.12 60.15 60.44 60.26 60.19 59.71 59.31 59.85 59.76 59.71 59.61 59.68 59.69 59.81 60.07 60.02 59.68 59.47 59.16 59.42 60.47 62.51 61.92 61.45 61.38 56.05 64.14 71.73 68.82 67.00 67.72 70.47 71.93 69.30 64.91 64.40 62.34 62.51 62.40 64.33 65.61 65.34 67.06 62.82 63.29
60.14 60.42 59.20 59.65 60.11 60.08 59.80 59.81 59.88 59.92 59.69 59.75 59.61 59.43 59.34 59.44 59.47 58.94 58.72 58.45 58.39 59.21 61.31 63.69 62.46 64.10 59.84 58.59 65.72 70.33 69.70 67.33 70.74 70.89 69.23 68.52 66.13 63.41 64.00 61.86 64.63 64.27 59.94 61.44 65.36 63.17 61.07
60.29 59.14 59.20 59.12 58.99 58.94 59.24 59.49 59.51 59.36 59.22 59.14 59.36 59.15 59.10 58.65 58.36 58.18 57.92 57.70 58.09 59.87 63.58 63.65 62.57 63.80 58.90 62.74 65.41 68.11 69.41 69.08 71.39 71.11 69.80 69.02 67.95 63.91 63.23 64.40 63.34 59.76 62.19 59.52 63.09 65.49 64.05
59.71 59.91 60.16 60.39 60.05 59.46 59.13 58.91 59.11 58.93 58.58 58.79 59.01 58.79 58.17 57.77 57.57 57.16 56.85 57.23 58.42 60.87 65.33 62.85 62.95 62.48 58.01 63.82 59.05 65.65 69.51 67.43 68.98 68.92 69.18 68.45 65.32 62.04 62.83 60.40 57.98 58.85 55.97 57.67 59.42 63.75 63.70
60.66 60.25 59.96 59.42 59.31 58.98 58.84 58.66 58.52 58.58 58.42 58.48 58.33 57.63 57.39 57.21 57.06 56.36 56.06 57.16 61.75 61.40 65.30 66.04 64.65 59.97 60.64 58.20 59.37 63.32 69.11 66.82 65.08 65.39 64.35 63.15 61.40 58.52 59.58 58.29 53.11 53.67 56.35 57.15 57.01 61.11 61.55
59.45 58.94 58.51 58.08 57.89 58.08 57.96 57.86 58.00 58.18 58.05 57.40 57.16 57.01 56.93 56.98 56.49 55.80 57.11 63.58 62.62 61.51 62.22 59.99 60.67 58.29 59.43 59.88 61.09 59.25 66.91 62.41 60.76 59.15 56.25 59.93 56.40 54.80 57.53 59.60 60.04 59.85 57.69 56.44 58.56 62.15 60.65
58.39 57.86 57.34 56.91 56.61 56.60 56.29 57.04 57.43 57.80 57.16 56.86 56.79 56.79 56.75 56.49 56.15 55.82 57.57 61.85 61.28 61.45 56.39 60.52 60.58 60.87 62.20 61.21 57.57 58.41 61.56 59.32 57.52 53.96 56.63 56.50 54.43 57.34 59.01 59.65 58.23 58.11 56.74 56.04 58.31 60.24 60.33
57.04 56.56 56.35 56.43 56.38 55.90 56.59 56.98 57.18 57.30 57.16 56.82 56.92 56.67 56.45 56.04 55.62 60.27 62.35 61.21 64.33 63.64 56.67 57.92 59.80 59.13 59.06 60.96 57.24 57.13 58.73 57.76 55.28 53.50 54.15 54.03 56.25 59.07 57.25 57.33 56.20 56.88 55.95 56.29 55.67 58.42 60.60
56.77 57.34 56.47 56.19 56.06 56.35 56.69 56.93 57.29 57.26 57.04 57.07 57.13 56.95 56.18 54.75 57.23 63.86 61.76 64.18 63.96 64.17 53.17 55.71 56.39 57.66 59.15 59.15 55.86 59.98 60.29 57.68 55.28 53.08 54.14 53.90 57.31 56.44 55.84 55.73 56.90 54.25 58.74 58.17 56.54 55.75 52.80
58.14 57.78 56.73 57.10 57.11 56.91 57.04 57.10 57.19 56.86 56.82 56.85 57.04 56.67 55.17 54.77 59.22 61.28 63.37 63.67 63.43 61.89 47.14 56.45 56.96 62.40 60.18 56.45 57.13 56.77 61.16 57.95 53.49 53.60 53.76 52.04 53.43 53.69 52.34 53.73 57.14 55.81 58.84 56.84 56.50 55.25 54.39
58.07 57.98 57.64 57.64 57.48 57.41 57.10 56.95 56.93 56.64 56.47 56.47 56.42 55.45 54.71 60.28 59.97 63.59 64.50 63.28 61.76 51.88 46.25 53.87 57.09 55.39 55.43 56.11 56.13 57.76 56.96 59.28 57.85 53.77 54.65 53.77 56.82 55.35 54.45 55.73 56.16 58.48 57.13 56.91 55.93 55.65 51.23
57.86 57.76 57.48 57.65 57.42 57.47 57.24 56.92 56.70 56.43 56.06 55.72 54.95 53.92 54.22 60.03 62.06 65.91 63.87 60.66 52.21 47.86 54.81 52.95 53.26 55.22 55.08 53.94 53.72 55.45 54.61 53.39 51.12 49.09 49.55 52.66 53.39 55.38 55.93 53.27 55.53 55.79 53.44 49.39 49.92 50.63 47.34
58.06 58.05 57.84 57.73 57.54 57.28 57.17 57.13 56.67 56.18 55.76 54.97 53.29 52.60 56.57 61.59 65.32 64.60 62.17 56.03 48.74 51.49 51.92 56.15 54.44 54.23 52.30 54.52 54.11 54.30 53.69 52.24 53.75 52.30 50.67 49.60 48.53 53.58 55.76 53.74 52.39 53.91 53.64 49.68 47.24 48.14 49.47
58.13 57.99 57.93 57.70 57.40 57.23 57.21 56.63 56.00 55.54 55.09 54.16 52.40 63.58 63.61 66.77 65.01 64.47 58.79 51.36 51.22 52.37 54.27 53.32 53.88 51.77 52.54 54.29 53.97 53.58 53.29 52.88 54.20 54.36 50.06 49.54 49.84 55.99 55.97 56.22 55.01 52.95 52.77 55.75 52.28 53.43 50.78
57.62 57.64 57.59 57.54 57.10 56.78 56.34 55.66 55.61 55.38 55.05 53.56 57.94 64.21 63.72 64.56 65.28 61.81 55.92 50.56 52.88 54.07 53.81 54.03 51.02 54.23 51.94 53.51 52.31 52.46 52.78 55.01 54.12 56.16 56.88 53.58 49.22 54.45 54.96 56.06 55.54 53.26 55.05 50.94 52.56 48.35 46.99
57.51 57.44 57.02 56.88 55.97 55.89 55.82 55.97 55.60 55.17 54.10 53.16 60.41 62.58 64.04 65.12 63.54 58.42 52.92 54.29 54.65 56.03 56.14 53.66 53.56 53.40 53.97 53.93 53.90 52.86 53.54 55.62 56.36 56.00 56.69 54.61 52.35 51.85 54.85 52.52 51.61 52.16 50.40 51.76 52.63 52.39 49.26
57.52 57.32 56.26 55.84 56.52 56.49 56.57 56.17 55.31 54.00 53.00 54.20 63.72 59.83 64.26 64.50 56.97 58.03 54.93 56.38 52.44 55.17 57.37 53.85 55.09 54.67 54.06 55.22 53.72 53.46 53.29 55.27 58.64 56.83 54.69 56.01 52.71 49.57 51.05 55.53 56.69 54.48 52.57 52.34 48.12 50.33 52.33
57.70 57.56 56.56 56.52 56.69 56.51 56.26 55.70 54.64 53.65 53.24 58.54 62.46 60.55 63.76 62.94 56.75 57.76 58.40 55.99 57.14 55.92 56.98 56.13 54.65 55.42 56.49 54.67 52.79 54.70 55.32 58.76 59.42 57.75 58.26 58.14 53.77 48.21 49.27 52.49 55.01 52.67 53.45 53.74 53.72 52.95 52.56
57.33 57.73 56.94 56.77 56.69 56.28 55.99 55.46 54.54 53.81 53.41 57.82 62.96 58.65 60.09 60.30 60.65 58.19 57.44 56.87 55.68 59.01 56.33 57.14 57.06 57.51 56.33 54.87 56.44 54.49 55.27 56.54 58.19 58.20 63.93 62.80 55.01 51.71 47.89 50.87 53.53 51.80 52.73 53.60 52.38 49.93 50.87
56.61 57.08 57.06 56.85 56.79 56.37 56.03 55.54 54.62 53.79 53.54 58.95 63.42 60.18 62.12 59.04 59.75 59.25 58.94 57.32 55.59 55.05 58.82 58.48 56.93 56.21 54.82 53.79 54.74 54.76 55.95 56.07 57.24 62.50 59.76 56.92 51.92 53.66 54.04 53.98 54.90 53.46 53.07 53.19 51.57 51.89 50.03
56.74 56.99 57.19 56.66 56.66 56.23 56.10 55.65 55.11 53.99 53.12 63.02 58.98 58.36 60.34 58.57 59.35 57.36 53.68 56.63 56.00 56.83 57.66 56.95 56.92 57.89 58.36 55.55 56.06 55.39 58.10 57.98 57.33 58.01 57.41 58.22 52.86 54.54 51.92 54.93 56.01 54.42 54.38 53.41 53.38 52.89 53.03
56.87 56.62 57.12 56.47 56.54 56.15 56.14 55.63 55.15 54.05 55.44 62.12 61.81 62.77 60.24 55.89 57.32 57.57 57.60 58.88 58.10 58.89 58.90 58.78 58.23 57.81 56.32 59.12 61.24 61.57 61.38 60.73 59.98 58.21 57.68 56.77 55.12 54.06 50.96 55.27 54.68 51.58 54.16 55.10 56.55 54.43 53.90
57.46 56.66 56.63 56.11 55.98 55.69 56.13 55.84 55.59 54.66 54.13 60.56 62.50 61.63 58.77 56.02 57.21 55.52 56.27 57.47 55.97 56.80 56.18 59.05 60.28 58.25 59.68 62.25 61.83 61.43 59.42 57.88 58.54 57.69 56.91 54.88 54.31 53.96 51.09 53.80 46.02 54.33 57.98 57.84 57.32 56.70 55.60
57.35 57.04 56.51 55.93 55.65 55.40 55.63 55.97 55.90 55.34 54.56 59.72 63.59 60.58 58.65 54.75 56.83 56.84 56.67 55.46 56.51 57.35 56.01 56.19 57.28 59.34 61.27 59.56 55.53 53.63 54.11 54.58 54.82 56.40 56.40 57.89 55.67 51.94 48.86 48.93 51.59 53.40 56.21 56.21 55.58 54.28 60.40
57.37 57.30 56.51 56.01 55.49 55.29 55.30 55.57 56.04 55.59 54.72 59.51 63.28 63.15 59.57 56.28 56.62 57.70 55.69 55.99 55.23 56.29 56.31 57.53 60.20 61.13 59.06 56.43 53.83 49.81 48.93 52.53 51.71 54.16 57.53 57.64 56.97 53.48 51.40 46.66 44.08 52.41 56.74 59.79 58.85 53.93 61.89
57.38 57.33 57.13 56.29 55.24 55.00 55.17 55.23 55.51 55.68 55.01 56.11 61.80 62.83 59.66 55.78 59.41 58.42 55.05 55.23 57.97 56.11 54.80 57.17 58.16 58.11 59.40 54.05 50.53 50.05 50.02 55.01 50.46 51.04 52.22 52.50 53.40 49.20 48.22 47.94 51.71 57.10 59.06 59.74 49.30 53.89 62.37
57.53 57.23 57.16 56.43 55.42 54.93 54.94 54.84 55.20 55.16 55.82 56.32 60.81 62.93 58.85 55.92 57.31 58.91 59.30 57.56 57.64 57.64 54.68 58.25 56.52 57.96 55.30 51.65 51.65 52.17 51.53 54.59 53.88 53.53 51.82 49.82 49.97 49.22 50.76 47.53 46.64 61.04 60.28 55.12 57.45 61.48 61.15
57.42 57.35 57.10 56.83 56.05 54.75 54.58 54.62 54.93 55.23 55.41 55.34 59.21 62.28 61.82 57.10 57.40 60.56 60.58 60.78 59.75 59.90 57.55 58.25 56.97 57.06 58.66 55.56 55.78 56.41 53.90 55.91 53.52 49.33 53.91 49.34 52.79 52.43 52.79 51.74 58.95 57.41 57.64 62.85 61.96 61.97 63.51
MSLP
1021.17 1020.95 1020.63 1020.34 1019.97 1019.57 1019.16 1018.80 1018.36 1017.93 1017.47 1017.01 1016.47 1015.86 1015.22 1014.66 1014.04 1013.42 1012.78 1012.23 1011.52 1010.84 1010.34 1009.91 1009.68 1009.43 1008.41 1006.18 1002.93 1003.16 1003.61 1003.86 1003.83 1003.92 1002.66 1000.70 999.62 998.88 998.59 997.90 998.87 998.88 999.10 999.33 999.31 1000.21 1000.47
1021.20 1021.01 1020.76 1020.46 1020.06 1019.68 1019.26 1018.90 1018.42 1017.92 1017.38 1016.84 1016.23 1015.70 1015.06 1014.43 1013.82 1013.23 1012.57 1011.98 1011.25 1010.52 1009.98 1009.59 1009.46 1009.43 1007.90 1004.24 1001.71 1002.51 1002.87 1003.47 1002.74 1002.90 1001.71 1000.40 999.64 999.40 998.93 998.00 997.86 998.73 1000.08 999.85 999.52 1002.00 1001.32
1021.32 1021.03 1020.76 1020.45 1020.09 1019.69 1019.31 1018.90 1018.47 1017.99 1017.43 1016.81 1016.13 1015.56 1014.92 1014.15 1013.61 1013.00 1012.28 1011.68 1010.98 1010.16 1009.60 1009.19 1009.25 1008.71 1005.83 1002.79 1001.65 1001.60 1002.32 1002.39 1001.82 1001.67 1000.66 999.84 999.77 999.92 999.19 998.13 997.79 998.02 1000.85 1000.93 999.77 1000.78 1002.43
1021.44 1021.15 1020.81 1020.48 1020.09 1019.70 1019.35 1018.91 1018.47 1017.97 1017.37 1016.73 1016.17 1015.58 1014.86 1014.08 1013.39 1012.72 1011.92 1011.18 1010.66 1009.90 1009.25 1008.99 1009.10 1007.91 1003.95 1001.41 1001.58 1001.50 1001.76 1001.67 1001.21 1000.70 1000.58 1000.34 1000.19 1000.07 999.49 998.75 998.76 1000.34 1000.16 999.86 998.76 999.50 1002.30
1021.42 1021.15 1020.83 1020.42 1020.06 1019.70 1019.30 1018.83 1018.44 1017.95 1017.36 1016.71 1016.05 1015.47 1014.84 1014.09 1013.26 1012.41 1011.47 1010.54 1009.97 1009.48 1008.99 1008.96 1008.49 1006.29 1002.64 1002.22 1001.68 1001.16 1001.11 1000.92 1000.86 1000.90 1000.68 1000.68 1000.57 1000.01 999.14 998.79 1000.05 1000.87 999.63 998.09 998.11 998.59 1000.68
1021.57 1021.29 1020.99 1020.68 1020.34 1019.96 1019.52 1018.98 1018.46 1017.96 1017.38 1016.76 1016.04 1015.37 1014.66 1013.90 1013.04 1012.22 1011.10 1009.28 1008.71 1008.92 1008.42 1007.81 1006.61 1005.06 1001.97 1000.69 1000.41 1000.67 1000.74 1000.72 1000.38 1000.47 1000.40 1000.39 1000.10 999.35 998.23 998.29 1001.18 999.95 998.83 996.67 996.95 997.71 998.58
1021.76 1021.44 1021.09 1020.74 1020.35 1019.90 1019.43 1018.98 1018.47 1017.87 1017.34 1016.81 1016.12 1015.30 1014.46 1013.65 1012.72 1012.18 1011.08 1007.94 1008.21 1007.92 1006.52 1004.23 1002.95 1001.58 1000.50 1000.47 1000.50 1000.41 1000.45 1000.81 1000.68 1000.32 999.81 999.55 999.20 998.23 996.95 996.99 997.91 998.40 996.94 996.10 996.23 997.12 998.02
1021.88 1021.54 1021.15 1020.73 1020.30 1019.85 1019.41 1018.93 1018.42 1017.89 1017.35 1016.74 1016.05 1015.27 1014.33 1013.26 1012.28 1011.42 1011.45 1008.20 1006.28 1005.91 1004.31 1002.63 1001.72 1000.93 1000.15 1000.35 1000.10 1000.25 1000.32 1000.54 1000.50 1000.16 999.57 999.17 998.07 997.50 997.01 996.66 996.90 996.96 996.38 996.09 995.90 996.22 997.04
1021.94 1021.59 1021.14 1020.70 1020.25 1019.84 1019.35 1018.84 1018.29 1017.71 1017.15 1016.57 1015.86 1015.06 1014.16 1013.03 1011.88 1010.27 1008.39 1006.32 1005.97 1005.26 1003.77 1000.60 1000.04 999.78 999.91 1000.16 999.86 999.17 999.81 1000.02 999.84 999.71 999.12 998.24 997.12 996.43 996.58 996.58 996.35 996.19 995.59 995.50 996.07 996.23 996.53
1021.87 1021.36 1020.91 1020.46 1020.03 1019.61 1019.12 1018.63 1018.07 1017.45 1016.88 1016.31 1015.62 1014.85 1014.23 1013.06 1011.53 1008.89 1006.59 1006.01 1005.64 1005.11 1003.08 999.42 999.21 998.83 999.01 999.39 999.12 998.91 998.81 999.51 999.48 998.90 998.30 997.84 997.12 996.51 996.29 996.21 996.22 995.68 995.36 995.65 995.95 996.14 996.15
1021.85 1021.36 1020.92 1020.42 1019.93 1019.42 1018.89 1018.34 1017.75 1017.15 1016.57 1015.96 1015.31 1014.74 1014.18 1014.46 1012.09 1008.32 1006.16 1005.91 1005.70 1004.93 1001.25 998.98 998.68 999.22 998.58 999.11 997.80 998.33 998.14 998.94 998.78 998.44 998.35 997.38 996.70 996.44 996.36 996.18 996.02 995.79 995.48 996.05 996.14 996.23 995.90
1021.80 1021.33 1020.84 1020.33 1019.76 1019.21 1018.66 1018.09 1017.49 1016.86 1016.19 1015.47 1014.90 1014.60 1014.14 1011.71 1011.82 1008.07 1006.52 1005.94 1005.32 1003.74 999.43 997.94 998.00 998.38 998.51 998.60 997.98 997.47 998.23 998.58 998.64 998.42 997.81 997.19 996.61 996.23 996.09 996.02 995.92 996.03 995.98 995.85 995.88 995.81 996.61
1021.79 1021.31 1020.80 1020.31 1019.77 1019.19 1018.57 1017.91 1017.25 1016.55 1015.77 1014.92 1014.31 1014.12 1014.23 1012.32 1008.18 1006.68 1006.47 1005.53 1003.91 1001.18 998.34 997.54 997.23 997.46 997.55 997.36 997.77 997.49 998.04 998.21 998.15 997.94 997.39 996.87 996.20 996.03 996.11 996.21 995.88 995.92 996.08 995.49 994.90 994.70 998.60
1021.85 1021.34 1020.84 1020.33 1019.75 1019.13 1018.48 1017.81 1017.09 1016.23 1015.30 1014.36 1013.41 1013.15 1011.18 1009.87 1007.58 1007.13 1006.32 1004.86 1002.19 998.95 998.03 998.09 998.01 997.45 997.04 996.64 996.91 996.94 997.36 997.50 997.68 997.43 996.38 995.42 994.71 994.72 995.18 995.59 995.60 995.17 995.28 995.22 994.59 994.19 995.36
1021.91 1021.45 1020.95 1020.41 1019.79 1019.11 1018.40 1017.66 1016.87 1015.83 1014.83 1013.93 1012.40 1009.96 1009.13 1007.25 1007.94 1007.05 1005.85 1003.18 1000.50 999.65 999.42 999.01 998.39 997.18 996.42 996.21 996.39 996.47 996.49 996.33 996.33 996.55 996.51 995.49 994.62 993.99 994.32 994.80 995.54 995.24 994.93 995.04 994.59 994.22 993.85
1022.05 1021.60 1021.06 1020.46 1019.82 1019.09 1018.32 1017.57 1016.59 1015.46 1014.40 1013.95 1012.14 1008.17 1006.02 1006.05 1006.35 1006.36 1004.95 1002.17 1000.59 1000.77 1000.40 999.96 998.62 997.03 996.11 995.73 996.32 996.26 995.85 995.71 995.46 995.37 995.44 995.50 995.20 994.54 994.44 994.94 995.08 995.34 995.16 994.69 994.52 994.59 994.24
1022.08 1021.62 1021.10 1020.50 1019.84 1019.14 1018.35 1017.43 1016.52 1015.26 1013.72 1013.06 1011.41 1007.07 1005.58 1005.74 1005.94 1005.22 1003.22 1001.12 1001.05 1000.70 1001.01 1000.16 999.11 998.20 997.28 996.46 996.10 995.97 995.43 995.05 995.41 995.61 995.49 995.75 995.63 995.13 994.51 994.68 994.96 994.89 995.06 994.95 994.62 994.17 993.97
1022.09 1021.59 1021.09 1020.50 1019.85 1019.18 1018.36 1017.47 1016.56 1015.50 1013.53 1012.17 1009.18 1005.16 1005.27 1005.26 1004.84 1003.32 1001.97 1001.31 1002.11 1001.16 1000.74 1000.66 1000.08 999.78 998.77 997.88 997.15 996.71 995.87 995.30 995.60 995.90 995.90 996.31 996.15 995.22 994.78 994.27 994.26 994.39 994.18 994.35 994.52 994.46 994.14
1022.16 1021.68 1021.17 1020.58 1019.99 1019.33 1018.51 1017.57 1016.68 1015.95 1015.48 1013.94 1009.25 1005.25 1004.90 1004.89 1003.49 1001.91 1001.41 1001.78 1001.81 1001.30 1000.69 1000.60 1000.25 999.80 999.42 999.18 998.61 997.75 996.63 996.34 996.88 997.04 997.39 996.93 996.07 995.71 995.17 994.42 993.71 993.91 994.27 994.08 993.90 994.08 993.69
1022.23 1021.78 1021.29 1020.68 1020.07 1019.37 1018.49 1017.51 1016.51 1015.84 1015.41 1014.60 1009.61 1005.12 1004.47 1004.57 1003.90 1002.89 1001.90 1001.78 1001.68 1001.74 1001.83 1001.54 1001.24 1000.71 1000.41 999.96 999.35 998.60 997.59 996.72 997.14 997.74 998.28 998.22 997.25 996.14 995.10 994.34 993.58 993.48 993.88 994.31 994.09 993.56 993.51
1022.28 1021.87 1021.40 1020.87 1020.26 1019.53 1018.71 1017.68 1016.41 1015.08 1014.33 1013.87 1008.85 1006.11 1005.81 1003.94 1003.23 1003.11 1002.90 1002.72 1002.31 1001.75 1001.90 1002.01 1001.49 1001.19 1000.79 1000.39 999.83 998.95 998.22 997.81 997.26 997.73 998.17 998.47 997.72 997.08 996.07 995.10 994.74 994.28 994.01 993.99 994.37 994.28 993.78
1022.34 1021.96 1021.53 1021.03 1020.46 1019.84 1019.07 1018.09 1016.89 1015.17 1013.10 1011.95 1010.04 1008.78 1007.61 1005.70 1004.63 1004.56 1003.78 1003.01 1002.95 1002.41 1002.57 1001.98 1001.84 1001.55 1001.73 1001.34 1000.71 1000.01 999.50 998.72 998.34 997.80 998.06 998.16 997.95 997.78 997.06 996.58 996.51 996.04 995.31 994.89 994.33 994.35 994.21
1022.38 1022.07 1021.71 1021.29 1020.74 1020.16 1019.48 1018.69 1017.83 1016.77 1014.30 1012.27 1011.95 1010.45 1008.92 1006.64 1005.13 1004.66 1003.90 1003.84 1003.90 1004.01 1003.96 1003.27 1002.79 1002.95 1002.38 1002.13 1002.29 1001.74 1001.02 1000.30 999.78 999.06 998.80 998.97 998.95 998.67 998.07 998.00 998.30 997.26 996.87 996.64 996.03 994.72 994.49
1022.37 1022.09 1021.79 1021.46 1021.01 1020.54 1019.96 1019.27 1018.57 1017.86 1017.61 1015.75 1013.10 1011.86 1009.59 1007.00 1005.91 1005.51 1005.66 1005.66 1005.34 1005.16 1004.83 1004.14 1003.78 1003.62 1003.42 1002.79 1002.85 1001.85 1001.05 1000.34 1000.03 999.53 999.28 999.28 999.52 999.64 999.47 1000.07 999.83 998.66 998.92 998.95 998.56 995.88 994.99
1022.32 1022.11 1021.85 1021.58 1021.24 1020.83 1020.33 1019.76 1019.16 1018.48 1017.90 1016.32 1014.01 1013.20 1011.43 1009.40 1007.79 1006.71 1006.77 1006.76 1006.43 1005.92 1005.39 1004.72 1004.33 1004.07 1003.67 1003.47 1003.16 1002.15 1001.04 1000.28 999.85 999.86 999.93 1000.91 1001.65 1001.90 1002.00 1002.12 1002.22 1000.92 1000.03 1000.98 1000.83 999.02 997.05
1022.24 1022.07 1021.88 1021.62 1021.38 1021.03 1020.64 1020.13 1019.60 1019.05 1018.46 1016.84 1014.64 1014.46 1013.28 1011.04 1008.52 1008.51 1008.08 1007.54 1006.80 1006.13 1005.52 1004.63 1004.00 1003.71 1003.89 1003.76 1003.47 1002.66 1001.55 1000.51 1000.16 1000.59 1001.46 1002.33 1003.65 1003.76 1003.65 1003.91 1004.10 1002.10 1001.68 1001.05 1001.58 1001.02 1000.30
1022.13 1021.97 1021.80 1021.62 1021.46 1021.22 1020.87 1020.46 1019.96 1019.43 1018.88 1018.29 1015.72 1015.20 1014.20 1012.31 1009.68 1009.55 1009.09 1008.73 1008.34 1007.79 1007.00 1005.59 1005.12 1004.59 1004.47 1004.22 1003.69 1002.85 1001.95 1001.37 1001.51 1002.41 1003.98 1004.37 1004.87 1005.27 1005.26 1005.11 1004.41 1003.40 1003.60 1002.57 1002.80 1002.69 1002.33
1021.88 1021.83 1021.72 1021.56 1021.42 1021.26 1020.97 1020.67 1020.29 1019.85 1019.37 1018.61 1016.14 1015.68 1015.33 1013.61 1011.28 1010.42 1009.86 1009.40 1008.96 1008.38 1007.69 1006.55 1006.11 1004.98 1004.67 1004.22 1003.68 1003.24 1002.78 1003.24 1003.86 1005.51 1006.53 1007.66 1007.55 1007.09 1007.01 1006.85 1005.82 1005.51 1003.19 1003.29 1002.78 1002.61 1002.89
1021.53 1021.54 1021.53 1021.46 1021.34 1021.27 1021.08 1020.79 1020.48 1020.16 1019.76 1019.35 1016.53 1015.78 1015.89 1014.96 1012.19 1011.34 1010.67 1010.22 1009.96 1009.57 1009.28 1008.40 1007.58 1006.91 1005.91 1005.68 1004.51 1004.08 1004.01 1004.76 1006.19 1006.79 1008.04 1009.40 1009.86 1010.39 1009.42 1007.89 1006.69 1007.14 1006.81 1005.20 1005.23 1002.66 1002.48
Wind_Speed
13 14 15 15 15 15 15 17 18 18 19 19 20 20 20 21 20 21 21 20 21 21 20 17 15 13 9 9 8 9 11 8 9 10 13 18 14 13 11 8 4 8 2 5 6 12 3
12 13 14 14 14 15 16 16 17 16 17 18 19 20 21 21 22 21 22 21 22 21 18 15 11 8 7 13 7 11 11 12 12 14 16 16 12 13 13 16 4 5 25 26 11 12 20
12 12 15 15 14 15 15 16 17 17 17 19 20 21 21 22 23 24 23 22 23 22 18 13 7 7 10 14 3 8 11 14 15 16 17 9 9 13 18 19 5 10 27 22 7 14 4
11 14 14 15 16 17 15 16 17 18 18 19 20 21 22 23 25 25 23 23 23 21 16 8 5 8 8 6 7 6 11 13 16 10 12 13 11 15 14 19 14 23 5 12 9 14 8
12 12 12 13 14 15 15 15 16 18 19 19 20 21 23 25 26 26 26 27 23 18 13 5 7 9 14 3 10 13 13 14 13 11 12 8 12 15 19 5 16 8 13 13 7 5 14
12 14 15 16 15 15 15 16 17 17 18 19 21 24 25 26 25 25 29 28 6 8 9 11 12 11 12 10 11 13 13 13 12 12 13 14 13 15 16 7 1 14 16 4 7 5 2
14 15 16 16 16 15 16 16 17 18 18 21 22 24 26 25 25 23 17 6 5 7 10 15 3 12 5 2 3 11 13 11 9 13 14 15 12 14 19 1 26 24 14 10 9 5 4
14 15 16 16 17 17 18 17 17 17 19 21 22 23 23 25 27 26 10 9 8 8 11 16 19 17 13 0 6 13 14 15 14 15 15 15 16 15 16 17 7 12 13 4 5 6 1
14 15 16 16 15 17 16 16 16 16 16 17 19 20 22 26 28 14 12 9 7 11 8 15 16 16 14 12 12 13 18 17 16 15 17 17 18 16 10 14 8 14 14 10 7 10 5
14 15 17 16 15 15 15 15 16 16 17 18 19 20 20 28 8 11 8 6 7 8 7 11 10 8 8 10 14 18 19 16 15 18 17 15 18 16 13 10 10 14 10 11 9 11 10
14 13 14 13 13 14 14 15 16 17 18 19 19 18 19 5 13 8 9 8 9 8 7 8 11 7 8 12 8 16 14 14 19 16 12 15 16 14 13 18 11 15 12 10 14 14 18
13 14 13 14 15 16 17 17 17 18 19 20 19 19 17 3 8 14 13 10 9 7 5 8 8 10 12 14 15 13 13 11 15 18 17 16 19 8 11 12 15 15 15 14 16 15 3
14 15 15 17 16 16 17 17 18 20 21 21 23 17 9 11 4 8 8 8 7 9 2 8 6 10 13 12 15 11 12 15 15 12 16 18 19 16 12 13 16 15 15 11 14 13 2
14 15 16 16 17 17 18 19 20 21 23 23 25 19 10 10 8 10 8 8 8 1 7 6 3 8 9 10 12 17 14 14 18 20 17 14 14 22 17 15 15 13 16 11 17 15 9
14 15 16 16 17 18 19 19 21 23 24 24 29 6 6 7 12 7 8 10 5 12 11 11 13 12 12 9 8 14 15 15 16 19 17 16 15 4 1 10 11 14 13 17 17 17 13
14 14 16 17 17 19 21 23 23 25 25 20 7 10 5 6 7 7 8 13 5 8 7 11 15 7 11 11 10 12 10 11 15 14 15 12 15 14 5 9 8 13 15 13 9 10 10
14 14 16 17 20 21 22 22 24 27 30 20 6 7 7 7 7 7 10 6 5 2 5 8 12 9 13 12 1 11 8 8 6 10 13 9 12 17 10 9 12 13 14 15 17 13 8
14 13 17 19 18 19 21 23 23 25 32 2 8 2 7 7 8 9 12 7 2 10 2 6 5 11 13 14 8 10 14 9 10 3 6 8 13 12 18 12 15 13 16 16 12 15 12
13 15 15 17 18 20 21 23 23 21 15 9 7 4 5 7 7 8 5 7 1 11 7 5 6 4 10 9 7 11 16 10 7 3 11 11 8 10 15 14 16 8 11 13 14 15 16
12 14 15 17 18 20 22 24 24 22 13 6 7 4 6 7 11 13 7 8 6 8 7 5 10 12 8 12 12 13 16 7 5 6 7 8 15 18 11 13 12 16 17 13 18 11 13
13 14 14 16 18 21 22 25 27 29 24 5 6 7 6 5 2 9 11 10 8 6 5 4 7 5 10 11 13 15 16 14 12 10 8 10 16 18 18 18 18 12 14 12 13 17 17
11 12 13 16 17 19 22 24 27 32 37 4 7 6 10 10 8 6 5 9 6 10 4 12 4 11 10 12 12 18 12 12 16 2 6 9 15 16 19 17 18 18 17 16 16 15 15
11 12 12 14 16 19 21 23 24 26 27 6 7 9 7 9 9 3 6 11 10 11 9 12 9 7 14 13 15 18 17 17 18 15 13 8 13 17 15 9 15 13 13 17 28 16 15
11 11 12 13 16 17 19 21 22 23 19 8 8 9 7 9 3 9 12 12 12 12 14 16 15 10 14 17 17 18 17 19 19 19 17 17 17 14 14 4 11 10 23 20 24 15 16
9 10 11 10 13 15 17 18 20 22 21 7 7 7 7 9 12 9 13 12 12 11 13 15 15 16 16 13 14 15 14 16 18 19 18 8 8 8 5 9 14 16 4 9 15 27 12
9 8 9 9 11 13 15 17 18 19 20 10 6 8 8 8 9 11 10 11 9 9 12 12 10 8 11 9 11 15 14 17 7 11 8 17 9 1 9 4 14 7 18 9 15 6 26
9 9 8 9 9 11 13 15 17 18 18 9 6 11 7 8 6 10 10 10 10 10 10 11 9 11 9 9 12 12 14 17 12 9 6 6 5 3 6 4 10 14 22 7 3 5 10
9 9 8 7 7 9 10 12 14 16 17 12 6 7 7 6 13 12 10 10 9 8 8 12 10 2 7 11 10 10 12 3 6 3 5 2 5 5 3 5 9 20 6 3 11 7 3
9 9 8 8 7 6 7 9 11 12 14 13 7 6 7 7 10 18 17 16 14 13 10 9 13 10 6 6 8 7 9 5 4 1 5 1 2 5 7 4 4 6 23 3 9 16 13
Wind_Direction
13 9 6 2 359 357 357 358 355 350 347 342 338 332 329 328 327 326 323 322 318 316 315 310 302 306 293 233 255 115 147 163 191 203 243 267 293 324 295 6 97 265 126 217 105 39 50
15 5 1 357 355 354 356 355 349 342 337 334 331 330 329 327 326 328 325 323 320 315 314 308 296 296 248 255 71 131 161 169 203 202 238 257 286 336 295 294 323 352 31 347 118 116 336
5 358 356 352 346 347 348 345 341 338 333 330 330 330 329 329 327 326 324 321 318 314 311 300 279 258 259 257 335 138 160 192 209 212 250 258 315 309 311 308 349 305 103 244 234 131 156
358 356 351 347 346 346 342 340 338 336 333 330 328 328 331 330 326 324 318 314 310 306 304 305 251 242 260 71 317 211 182 204 223 242 270 309 306 300 277 281 4 4 249 197 107 112 120
347 344 338 339 343 343 339 336 332 332 330 329 328 330 331 328 324 322 315 308 297 286 283 258 236 234 265 97 211 223 197 209 218 233 254 279 286 284 291 310 29 323 290 288 120 122 161
356 357 355 347 342 339 338 337 334 330 329 329 330 331 330 327 322 321 318 295 298 277 227 236 264 266 246 243 177 207 204 233 218 237 239 240 252 261 253 216 212 242 249 4 99 75 238
353 349 345 341 338 336 337 336 331 328 330 331 330 330 327 322 316 319 332 317 214 188 222 256 313 257 135 179 28 205 201 210 244 262 245 243 239 246 267 105 195 215 282 303 64 105 324
349 343 339 338 337 337 336 330 327 327 332 331 330 327 321 316 315 313 283 273 50 331 295 267 254 257 283 244 236 220 207 213 217 238 240 252 242 250 285 300 346 302 290 317 304 23 349
347 341 340 336 335 336 327 326 324 322 322 325 324 320 316 319 316 288 250 313 332 312 273 288 219 223 224 226 246 215 202 208 225 225 247 245 259 247 226 268 270 253 263 22 344 310 322
349 343 347 342 339 331 324 323 321 320 319 316 314 315 324 328 297 336 285 25 302 317 276 195 186 212 181 212 236 247 187 212 229 254 228 250 261 269 281 276 291 279 0 351 303 291 283
343 349 353 340 332 325 319 318 318 318 318 314 311 317 321 329 310 282 2 324 331 267 273 152 125 113 208 204 95 195 210 203 237 227 248 263 243 262 271 273 263 262 323 332 291 283 271
343 340 339 334 337 333 327 322 318 319 317 313 311 320 325 212 207 259 300 305 272 233 246 133 135 189 199 215 255 153 208 216 227 249 269 257 279 284 285 286 267 276 301 284 271 256 70
349 340 344 345 345 341 336 332 326 321 316 311 313 309 294 306 233 335 309 264 230 254 114 146 192 167 201 189 219 177 197 207 223 222 237 251 245 250 232 259 262 236 248 272 270 229 253
349 340 344 344 340 337 334 332 328 321 316 314 313 304 238 239 294 257 270 246 256 347 358 53 291 273 265 235 184 206 215 224 218 253 272 244 236 207 215 221 267 263 233 258 297 311 191
350 345 342 341 338 336 334 334 328 322 319 322 308 201 225 196 223 256 253 234 288 15 15 356 318 260 243 244 254 210 215 228 227 209 246 278 277 267 334 190 228 260 224 245 278 302 298
350 348 345 342 340 339 342 342 328 325 324 330 303 261 139 135 177 226 246 259 334 4 327 299 284 321 283 193 181 251 226 228 248 238 233 245 271 279 152 234 238 274 277 269 224 259 278
350 347 348 347 351 348 346 336 333 329 327 330 241 230 116 159 200 234 255 337 354 18 348 293 312 320 313 319 10 252 224 236 133 283 252 268 269 270 266 179 248 225 238 258 280 280 286
344 339 351 351 347 342 339 336 336 337 333 230 289 292 135 191 228 222 259 21 22 273 273 262 293 286 296 321 302 283 297 328 67 328 312 229 267 261 251 245 236 234 254 215 239 252 275
341 345 347 344 345 344 341 338 337 342 357 314 272 75 155 224 265 280 117 282 212 304 311 311 289 282 312 306 303 287 290 98 62 281 16 314 243 249 263 269 232 211 260 274 262 247 269
342 344 345 346 348 347 344 341 338 340 343 296 278 206 153 212 271 292 354 270 308 135 279 318 306 311 305 274 268 277 291 284 174 259 40 306 280 293 279 253 303 216 203 231 266 268 250
342 345 345 347 350 348 347 346 342 339 341 264 258 31 3 299 42 341 344 328 304 298 154 295 283 246 292 315 303 280 254 257 276 169 220 254 265 274 282 288 314 313 280 218 223 260 265
339 342 345 350 352 352 350 350 349 346 338 242 346 347 339 295 298 278 250 294 315 315 8 294 272 332 353 291 318 326 354 307 319 312 249 276 269 273 288 329 349 313 308 271 282 229 269
336 341 346 351 353 353 353 353 355 357 344 2 10 341 285 295 298 274 5 345 338 353 300 265 315 308 288 9 337 316 308 298 298 305 287 269 290 300 295 8 329 292 340 344 323 271 241
327 335 342 349 354 356 353 355 356 357 6 308 4 313 297 308 336 348 350 330 319 315 313 311 320 311 292 325 320 294 279 267 267 277 286 286 272 268 291 327 252 293 334 334 342 300 249
310 324 335 345 352 355 355 355 356 353 355 321 336 346 333 317 326 321 356 333 311 291 269 267 270 270 283 306 294 289 273 260 237 245 251 23 16 332 319 297 332 301 325 9 358 317 310
294 306 322 333 347 353 355 356 355 354 355 324 358 350 315 301 34 341 312 292 285 325 316 294 303 283 286 281 286 274 268 273 301 289 360 315 57 181 313 317 221 233 318 24 10 347 343
286 290 303 317 334 348 352 354 354 353 350 329 314 5 315 293 272 1 329 327 321 326 310 296 353 312 298 266 267 266 272 290 308 242 22 326 304 17 308 320 299 108 228 147 45 284 326
270 277 283 296 311 336 346 350 354 354 351 344 324 13 344 305 298 302 321 304 306 287 285 342 314 304 258 269 250 268 270 46 7 121 108 358 302 281 277 254 252 2 267 241 288 168 291
263 264 269 274 285 310 331 340 346 349 348 343 307 4 335 267 294 316 284 272 277 290 298 295 302 309 324 326 330 339 342 3 12 289 62 141 182 336 276 285 255 311 287 154 46 209 174